﻿_id,日時,平均風速(m/s),平均風向,最大瞬間風速(m/s),最大風速時風向,気温(℃),湿度(%),10分間移動積算雨量(mm),1時間移動積算雨量(mm),日雨量(mm),累計雨量(mm)
1,2021-03-29T00:00:00,1.1,南東,2.6,南東,13.8,97.2,0,0,13.5,13.5
2,2021-03-29T00:01:00,1.1,東南東,2.6,南東,13.8,97.2,0,0,0,13.5
3,2021-03-29T00:02:00,1,東南東,2.6,南東,13.7,97.2,0,0,0,13.5
4,2021-03-29T00:03:00,0.8,東南東,2.3,南東,13.7,97.2,0,0,0,13.5
5,2021-03-29T00:04:00,0.7,東,2,南東,13.9,97.4,0,0,0,13.5
6,2021-03-29T00:05:00,0.6,東,2,南東,14,97.5,0,0,0,13.5
7,2021-03-29T00:06:00,0.4,東,1.1,南東,14,97.5,0,0,0,13.5
8,2021-03-29T00:07:00,0.4,東,1.1,南東,13.9,97.4,0,0,0,13.5
9,2021-03-29T00:08:00,0.4,東,1.1,南東,13.7,97.1,0,0,0,13.5
10,2021-03-29T00:09:00,0.3,東,0.7,東北東,13.7,97,0,0,0,13.5
11,2021-03-29T00:10:00,0.3,東,0.8,南東,13.7,97.1,0,0,0,13.5
12,2021-03-29T00:11:00,0.3,東南東,0.8,南東,13.7,97.1,0,0,0,13.5
13,2021-03-29T00:12:00,0.4,東南東,0.9,南東,13.6,97.1,0,0,0,13.5
14,2021-03-29T00:13:00,0.4,東南東,0.9,南東,13.7,97.2,0,0,0,13.5
15,2021-03-29T00:14:00,0.4,東南東,0.9,南東,13.6,97.2,0,0,0,13.5
16,2021-03-29T00:15:00,0.4,東南東,0.9,南東,13.6,97.2,0,0,0,13.5
17,2021-03-29T00:16:00,0.4,東南東,0.9,南東,13.6,97.2,0,0,0,13.5
18,2021-03-29T00:17:00,0.5,東南東,1.1,東北東,13.6,97.3,0,0,0,13.5
19,2021-03-29T00:18:00,0.6,東南東,1.4,東北東,13.6,97.2,0,0,0,13.5
20,2021-03-29T00:19:00,0.7,東,1.5,東北東,13.5,97.1,0,0,0,13.5
21,2021-03-29T00:20:00,0.8,東,1.5,東北東,13.5,97.1,0,0,0,13.5
22,2021-03-29T00:21:00,0.8,東,1.5,東北東,13.5,97.2,0,0,0,13.5
23,2021-03-29T00:22:00,0.9,東北東,2.2,東北東,13.5,97.3,0,0,0,13.5
24,2021-03-29T00:23:00,0.9,東北東,2.2,東北東,13.5,97.3,0,0,0,13.5
25,2021-03-29T00:24:00,1,東北東,2.2,東北東,13.5,97.3,0,0,0,13.5
26,2021-03-29T00:25:00,1.1,東北東,2.2,東北東,13.5,97.3,0,0,0,13.5
27,2021-03-29T00:26:00,1,東北東,2.2,東北東,13.5,97.3,0,0,0,13.5
28,2021-03-29T00:27:00,1,東北東,2.2,東北東,13.6,97.4,0,0,0,13.5
29,2021-03-29T00:28:00,0.9,東北東,2.2,東北東,13.6,97.4,0,0,0,13.5
30,2021-03-29T00:29:00,0.7,東北東,2.2,東北東,13.5,97.4,0,0,0,13.5
31,2021-03-29T00:30:00,0.7,東北東,2.2,東北東,13.6,97.4,0,0,0,13.5
32,2021-03-29T00:31:00,0.6,東,2.2,東北東,13.6,97.5,0,0,0,13.5
33,2021-03-29T00:32:00,0.5,東南東,2,北東,13.6,97.4,0,0,0,13.5
34,2021-03-29T00:33:00,0.5,南東,2,南,13.4,97.3,0,0,0,13.5
35,2021-03-29T00:34:00,0.5,南東,2.2,南,13.4,97.1,0,0,0,13.5
36,2021-03-29T00:35:00,0.6,南南東,2.2,南,13.4,97.1,0,0,0,13.5
37,2021-03-29T00:36:00,0.7,南南東,2.2,南,13.4,97.2,0,0,0,13.5
38,2021-03-29T00:37:00,0.7,南南東,2.2,南,13.4,97.3,0,0,0,13.5
39,2021-03-29T00:38:00,0.9,南南東,2.2,南,13.4,97.3,0,0,0,13.5
40,2021-03-29T00:39:00,1,南南東,2.2,南,13.5,97.4,0,0,0,13.5
41,2021-03-29T00:40:00,1.1,南南東,2.2,南,13.5,97.5,0,0,0,13.5
42,2021-03-29T00:41:00,1.2,南南東,2.2,南,13.5,97.5,0,0,0,13.5
43,2021-03-29T00:42:00,1.2,南東,2.2,南,13.5,97.5,0,0,0,13.5
44,2021-03-29T00:43:00,1.1,南東,2.2,南,13.5,97.5,0,0,0,13.5
45,2021-03-29T00:44:00,1.1,南東,2.2,南東,13.5,97.5,0,0,0,13.5
46,2021-03-29T00:45:00,1,東南東,2.2,南東,13.5,97.4,0,0,0,13.5
47,2021-03-29T00:46:00,1,東南東,2.1,南東,13.5,97.4,0,0,0,13.5
48,2021-03-29T00:47:00,0.9,東南東,2.1,南東,13.5,97.5,0,0,0,13.5
49,2021-03-29T00:48:00,0.9,東,1.9,南東,13.6,97.5,0,0,0,13.5
50,2021-03-29T00:49:00,0.8,東,1.9,南東,13.7,97.5,0,0,0,13.5
51,2021-03-29T00:50:00,0.8,東北東,1.9,南東,13.7,97.6,0,0,0,13.5
52,2021-03-29T00:51:00,0.7,東北東,1.7,北東,13.7,97.6,0,0,0,13.5
53,2021-03-29T00:52:00,0.8,北東,1.8,北北東,13.8,97.6,0,0,0,13.5
54,2021-03-29T00:53:00,0.8,北東,1.8,北北東,13.7,97.5,0,0,0,13.5
55,2021-03-29T00:54:00,0.8,北東,1.8,北北東,13.6,97.4,0,0,0,13.5
56,2021-03-29T00:55:00,0.8,北東,1.8,北北東,13.6,97.4,0,0,0,13.5
57,2021-03-29T00:56:00,0.8,北東,1.8,北北東,13.6,97.4,0,0,0,13.5
58,2021-03-29T00:57:00,0.8,北東,1.8,北北東,13.5,97.3,0,0,0,13.5
59,2021-03-29T00:58:00,0.8,東北東,1.8,北北東,13.5,97.3,0,0,0,13.5
60,2021-03-29T00:59:00,0.8,東北東,1.8,北北東,13.5,97.3,0,0,0,13.5
61,2021-03-29T01:00:00,0.8,東北東,1.8,北北東,13.6,97.4,0,0,0,13.5
62,2021-03-29T01:01:00,0.7,東,1.8,北北東,13.5,97.4,0,0,0,13.5
63,2021-03-29T01:02:00,0.7,東南東,1.5,東北東,13.6,97.4,0,0,0,13.5
64,2021-03-29T01:03:00,0.6,東南東,1.5,東北東,13.5,97.5,0,0,0,13.5
65,2021-03-29T01:04:00,0.6,東南東,1.1,南東,13.5,97.4,0,0,0,13.5
66,2021-03-29T01:05:00,0.6,東南東,1.1,南東,13.5,97.5,0,0,0,13.5
67,2021-03-29T01:06:00,0.6,東南東,1.1,南東,13.5,97.4,0,0,0,13.5
68,2021-03-29T01:07:00,0.7,東南東,1.1,南東,13.5,97.4,0,0,0,13.5
69,2021-03-29T01:08:00,0.7,東南東,1.3,東北東,13.5,97.5,0,0,0,13.5
70,2021-03-29T01:09:00,0.7,東南東,1.3,東北東,13.5,97.5,0,0,0,13.5
71,2021-03-29T01:10:00,0.7,東,1.3,東北東,13.5,97.5,0,0,0,13.5
72,2021-03-29T01:11:00,0.7,東,1.3,東北東,13.5,97.5,0,0,0,13.5
73,2021-03-29T01:12:00,0.8,東北東,1.3,東北東,13.6,97.5,0,0,0,13.5
74,2021-03-29T01:13:00,0.8,東北東,1.3,東北東,13.5,97.5,0,0,0,13.5
75,2021-03-29T01:14:00,0.8,東北東,1.3,東北東,13.5,97.5,0,0,0,13.5
76,2021-03-29T01:15:00,0.9,東北東,1.3,東北東,13.5,97.4,0,0,0,13.5
77,2021-03-29T01:16:00,0.8,東北東,1.3,東北東,13.6,97.5,0,0,0,13.5
78,2021-03-29T01:17:00,0.9,東北東,1.4,南南東,13.6,97.5,0,0,0,13.5
79,2021-03-29T01:18:00,0.8,東北東,1.4,南南東,13.7,97.6,0,0,0,13.5
80,2021-03-29T01:19:00,0.9,東北東,1.4,南南東,13.7,97.6,0,0,0,13.5
81,2021-03-29T01:20:00,0.8,東,1.4,南南東,13.7,97.6,0,0,0,13.5
82,2021-03-29T01:21:00,0.9,東,2.5,南東,13.9,97.6,0,0,0,13.5
83,2021-03-29T01:22:00,0.9,東,2.5,南東,13.8,97.6,0,0,0,13.5
84,2021-03-29T01:23:00,0.9,東南東,2.5,南東,13.9,97.5,0,0,0,13.5
85,2021-03-29T01:24:00,0.9,東南東,2.5,南東,13.9,97.6,0,0,0,13.5
86,2021-03-29T01:25:00,0.9,東南東,2.5,南東,14,97.6,0,0,0,13.5
87,2021-03-29T01:26:00,1,南東,2.5,南東,13.9,97.5,0,0,0,13.5
88,2021-03-29T01:27:00,1,南東,2.5,南東,14,97.5,0,0,0,13.5
89,2021-03-29T01:28:00,1,南東,2.5,南東,14,97.5,0,0,0,13.5
90,2021-03-29T01:29:00,1,南東,2.5,南東,14.1,97.5,0,0,0,13.5
91,2021-03-29T01:30:00,1,南東,2.5,南東,14.1,97.5,0,0,0,13.5
92,2021-03-29T01:31:00,0.9,南東,2.5,南南東,14,97.4,0,0,0,13.5
93,2021-03-29T01:32:00,0.9,南南東,2.5,南南東,14,97.3,0,0,0,13.5
94,2021-03-29T01:33:00,0.8,南南東,2.5,南南東,13.9,97.2,0,0,0,13.5
95,2021-03-29T01:34:00,0.7,南南東,2.5,南南東,13.9,97.1,0,0,0,13.5
96,2021-03-29T01:35:00,0.6,南南東,2.5,南南東,13.8,97,0,0,0,13.5
97,2021-03-29T01:36:00,0.6,南東,2.5,南南東,13.9,97,0,0,0,13.5
98,2021-03-29T01:37:00,0.5,南東,2.5,南南東,13.9,97,0,0,0,13.5
99,2021-03-29T01:38:00,0.5,南東,1.4,南東,13.9,97,0,0,0,13.5
100,2021-03-29T01:39:00,0.5,南東,1.4,南東,14,97,0,0,0,13.5
101,2021-03-29T01:40:00,0.4,南南東,1.4,南東,13.9,96.9,0,0,0,13.5
102,2021-03-29T01:41:00,0.4,南南東,1.4,南東,13.9,96.8,0,0,0,13.5
103,2021-03-29T01:42:00,0.4,南南東,1.4,南東,13.9,96.8,0,0,0,13.5
104,2021-03-29T01:43:00,0.5,南南東,1.6,南,13.9,96.8,0,0,0,13.5
105,2021-03-29T01:44:00,0.5,南南東,1.6,南,13.8,96.7,0,0,0,13.5
106,2021-03-29T01:45:00,0.5,南南東,1.6,南,13.8,96.6,0,0,0,13.5
107,2021-03-29T01:46:00,0.5,南南東,1.6,南,13.7,96.6,0,0,0,13.5
108,2021-03-29T01:47:00,0.4,南南東,1.6,南,13.7,96.6,0,0,0,13.5
109,2021-03-29T01:48:00,0.4,南東,1.6,南,13.7,96.7,0,0,0,13.5
110,2021-03-29T01:49:00,0.4,南東,1.6,南,13.7,96.7,0,0,0,13.5
111,2021-03-29T01:50:00,0.4,東南東,1.6,南,13.6,96.7,0,0,0,13.5
112,2021-03-29T01:51:00,0.4,東,1.6,南,13.6,96.8,0,0,0,13.5
113,2021-03-29T01:52:00,0.4,東北東,1.6,南,13.7,96.8,0,0,0,13.5
114,2021-03-29T01:53:00,0.4,東北東,1.3,東北東,13.7,96.8,0,0,0,13.5
115,2021-03-29T01:54:00,0.5,東北東,1.3,東北東,13.7,96.9,0,0,0,13.5
116,2021-03-29T01:55:00,0.6,北東,1.9,東北東,13.7,96.8,0,0,0,13.5
117,2021-03-29T01:56:00,0.7,北東,2.1,東北東,13.6,96.8,0,0,0,13.5
118,2021-03-29T01:57:00,0.8,北東,2.3,北東,13.8,96.9,0,0,0,13.5
119,2021-03-29T01:58:00,0.8,東北東,2.3,北東,13.9,97.1,0,0,0,13.5
120,2021-03-29T01:59:00,0.9,東北東,2.3,北東,13.8,97,0,0,0,13.5
121,2021-03-29T02:00:00,1,東北東,2.3,北東,13.8,96.9,0,0,0,13.5
122,2021-03-29T02:01:00,1.1,東北東,2.3,北東,13.6,96.7,0,0,0,13.5
123,2021-03-29T02:02:00,1.2,東北東,2.3,北東,13.6,96.6,0,0,0,13.5
124,2021-03-29T02:03:00,1.2,東北東,2.3,北東,13.6,96.7,0,0,0,13.5
125,2021-03-29T02:04:00,1.3,東北東,2.3,北東,13.6,96.7,0,0,0,13.5
126,2021-03-29T02:05:00,1.3,東北東,2.3,北東,13.6,96.8,0,0,0,13.5
127,2021-03-29T02:06:00,1.2,東北東,2.3,北東,13.8,97,0,0,0,13.5
128,2021-03-29T02:07:00,1.1,東北東,2.2,東北東,13.7,96.9,0,0,0,13.5
129,2021-03-29T02:08:00,1,東北東,2.2,東北東,13.6,96.8,0,0,0,13.5
130,2021-03-29T02:09:00,1,東北東,2.2,東北東,13.6,96.7,0,0,0,13.5
131,2021-03-29T02:10:00,1,東北東,2.1,東北東,13.6,96.8,0,0,0,13.5
132,2021-03-29T02:11:00,1,東北東,2.1,東北東,13.6,96.8,0,0,0,13.5
133,2021-03-29T02:12:00,0.9,東北東,2.1,東北東,13.6,96.8,0,0,0,13.5
134,2021-03-29T02:13:00,0.8,東北東,1.8,東北東,13.5,96.8,0,0,0,13.5
135,2021-03-29T02:14:00,0.8,東北東,1.8,東北東,13.5,96.8,0,0,0,13.5
136,2021-03-29T02:15:00,0.8,北東,1.8,東北東,13.5,96.9,0,0,0,13.5
137,2021-03-29T02:16:00,0.7,東北東,1.8,東北東,13.5,96.9,0,0,0,13.5
138,2021-03-29T02:17:00,0.7,北東,1.8,東北東,13.5,96.9,0,0,0,13.5
139,2021-03-29T02:18:00,0.8,北東,1.8,東北東,13.5,96.9,0,0,0,13.5
140,2021-03-29T02:19:00,0.7,北東,1.8,東北東,13.6,96.9,0,0,0,13.5
141,2021-03-29T02:20:00,0.7,北東,1.8,東北東,13.5,96.9,0,0,0,13.5
142,2021-03-29T02:21:00,0.7,北東,1.5,東,13.5,96.9,0,0,0,13.5
143,2021-03-29T02:22:00,0.7,東北東,1.5,東,13.5,96.9,0,0,0,13.5
144,2021-03-29T02:23:00,0.7,東北東,1.6,東,13.5,96.9,0,0,0,13.5
145,2021-03-29T02:24:00,0.8,東北東,1.8,東,13.5,96.9,0,0,0,13.5
146,2021-03-29T02:25:00,0.8,東北東,1.8,東,13.5,97,0,0,0,13.5
147,2021-03-29T02:26:00,0.9,東北東,1.8,東,13.5,96.9,0,0,0,13.5
148,2021-03-29T02:27:00,1,東北東,1.8,東,13.4,96.9,0,0,0,13.5
149,2021-03-29T02:28:00,1,東北東,1.8,東,13.5,97,0,0,0,13.5
150,2021-03-29T02:29:00,1,東,1.8,東,13.4,97,0,0,0,13.5
151,2021-03-29T02:30:00,1.1,東,1.8,東,13.4,96.9,0,0,0,13.5
152,2021-03-29T02:31:00,1.1,東,1.8,東,13.4,96.9,0,0,0,13.5
153,2021-03-29T02:32:00,1.1,東,1.8,東,13.4,97,0,0,0,13.5
154,2021-03-29T02:33:00,1,東,1.8,東,13.5,97.1,0,0,0,13.5
155,2021-03-29T02:34:00,0.9,東,1.8,東南東,13.5,97.1,0,0,0,13.5
156,2021-03-29T02:35:00,0.9,東,1.8,東南東,13.4,97,0,0,0,13.5
157,2021-03-29T02:36:00,0.8,東,1.8,東南東,13.4,97,0,0,0,13.5
158,2021-03-29T02:37:00,0.7,東南東,1.8,東南東,13.4,97,0,0,0,13.5
159,2021-03-29T02:38:00,0.7,東南東,1.8,東南東,13.4,97,0,0,0,13.5
160,2021-03-29T02:39:00,0.8,東南東,1.8,東南東,13.4,97.1,0,0,0,13.5
161,2021-03-29T02:40:00,0.7,東南東,1.7,南東,13.4,97.1,0,0,0,13.5
162,2021-03-29T02:41:00,0.7,南東,1.7,南東,13.4,97.1,0,0,0,13.5
163,2021-03-29T02:42:00,0.7,南東,1.7,南東,13.3,97,0,0,0,13.5
164,2021-03-29T02:43:00,0.7,南東,1.7,南東,13.4,97,0,0,0,13.5
165,2021-03-29T02:44:00,0.7,南東,1.7,南東,13.3,97,0,0,0,13.5
166,2021-03-29T02:45:00,0.8,南東,1.7,南東,13.3,97,0,0,0,13.5
167,2021-03-29T02:46:00,0.8,南東,1.7,南東,13.3,97,0,0,0,13.5
168,2021-03-29T02:47:00,0.9,南東,1.7,南東,13.3,97,0,0,0,13.5
169,2021-03-29T02:48:00,0.9,南東,1.7,南東,13.3,97,0,0,0,13.5
170,2021-03-29T02:49:00,0.8,南東,1.6,南南東,13.3,97,0,0,0,13.5
171,2021-03-29T02:50:00,0.7,南南東,1.4,南南東,13.3,97.1,0,0,0,13.5
172,2021-03-29T02:51:00,0.7,南南東,1.4,南南東,13.3,97.1,0,0,0,13.5
173,2021-03-29T02:52:00,0.6,南南東,1.4,南南東,13.2,97,0,0,0,13.5
174,2021-03-29T02:53:00,0.6,南南東,1.4,南南東,13.2,97,0,0,0,13.5
175,2021-03-29T02:54:00,0.7,南南東,1.4,南南東,13.2,97,0,0,0,13.5
176,2021-03-29T02:55:00,0.7,南南東,1.4,南南東,13.2,97,0,0,0,13.5
177,2021-03-29T02:56:00,0.7,南南東,1.4,南南東,13.2,97.1,0,0,0,13.5
178,2021-03-29T02:57:00,0.7,南南東,1.4,南南東,13.2,97.1,0,0,0,13.5
179,2021-03-29T02:58:00,0.7,南南東,1.4,南東,13.2,97.2,0,0,0,13.5
180,2021-03-29T02:59:00,0.7,南南東,1.4,南東,13.2,97.1,0,0,0,13.5
181,2021-03-29T03:00:00,0.7,南南東,1.4,南東,13.2,97.1,0,0,0,13.5
182,2021-03-29T03:01:00,0.7,南南東,1.4,南東,13.2,97.1,0,0,0,13.5
183,2021-03-29T03:02:00,0.7,南南東,1.4,南東,13.2,97.2,0,0,0,13.5
184,2021-03-29T03:03:00,0.6,南,1.4,南東,13.2,97.2,0,0,0,13.5
185,2021-03-29T03:04:00,0.5,南,1.4,南東,13.2,97.1,0,0,0,13.5
186,2021-03-29T03:05:00,0.5,南,1.4,南東,13.2,97.1,0,0,0,13.5
187,2021-03-29T03:06:00,0.4,南,1.4,南東,13.2,97.1,0,0,0,13.5
188,2021-03-29T03:07:00,0.4,南,1.2,南東,13.2,97.1,0,0,0,13.5
189,2021-03-29T03:08:00,0.4,南,1,東南東,13.2,97.2,0,0,0,13.5
190,2021-03-29T03:09:00,0.4,南,1.2,南東,13.2,97.2,0,0,0,13.5
191,2021-03-29T03:10:00,0.5,南,1.2,南東,13.2,97.2,0,0,0,13.5
192,2021-03-29T03:11:00,0.6,南南東,1.7,南東,13.2,97.2,0,0,0,13.5
193,2021-03-29T03:12:00,0.6,南南東,1.7,南東,13.2,97.2,0,0,0,13.5
194,2021-03-29T03:13:00,0.7,南東,1.7,南東,13.2,97.2,0,0,0,13.5
195,2021-03-29T03:14:00,0.7,南東,1.7,南東,13.2,97.2,0,0,0,13.5
196,2021-03-29T03:15:00,0.8,南東,1.7,南東,13.3,97.2,0,0,0,13.5
197,2021-03-29T03:16:00,0.8,南東,1.7,南東,13.3,97.2,0,0,0,13.5
198,2021-03-29T03:17:00,0.9,東南東,1.7,南東,13.3,97.2,0,0,0,13.5
199,2021-03-29T03:18:00,0.8,東南東,1.7,南東,13.2,97.2,0,0,0,13.5
200,2021-03-29T03:19:00,0.7,東南東,1.7,南東,13.3,97.2,0,0,0,13.5
201,2021-03-29T03:20:00,0.6,東南東,1.7,南東,13.3,97.3,0,0,0,13.5
202,2021-03-29T03:21:00,0.6,東南東,1.2,東,13.3,97.3,0,0,0,13.5
203,2021-03-29T03:22:00,0.7,南東,1.5,南,13.2,97.2,0,0,0,13.5
204,2021-03-29T03:23:00,0.7,南東,1.5,南,13.1,97,0,0,0,13.5
205,2021-03-29T03:24:00,0.6,南東,1.5,南,13.1,97,0,0,0,13.5
206,2021-03-29T03:25:00,0.6,南東,1.5,南,13.1,97,0,0,0,13.5
207,2021-03-29T03:26:00,0.6,南東,1.5,南,13.2,97.1,0,0,0,13.5
208,2021-03-29T03:27:00,0.6,南南東,1.5,南,13.2,97.2,0,0,0,13.5
209,2021-03-29T03:28:00,0.6,南南東,1.5,南,13.1,97.1,0,0,0,13.5
210,2021-03-29T03:29:00,0.7,南南東,1.5,南,13.1,97.1,0,0,0,13.5
211,2021-03-29T03:30:00,0.8,南南東,1.5,南,13.1,97.2,0,0,0,13.5
212,2021-03-29T03:31:00,0.8,南東,1.5,南,13.2,97.3,0,0,0,13.5
213,2021-03-29T03:32:00,0.7,南東,1.4,南,13.2,97.3,0,0,0,13.5
214,2021-03-29T03:33:00,0.7,南東,1.4,南,13.2,97.2,0,0,0,13.5
215,2021-03-29T03:34:00,0.7,東南東,1.2,東北東,13.1,97.1,0,0,0,13.5
216,2021-03-29T03:35:00,0.8,東南東,1.9,東北東,13.1,97.2,0,0,0,13.5
217,2021-03-29T03:36:00,0.9,東,1.9,東北東,13.1,97.2,0,0,0,13.5
218,2021-03-29T03:37:00,0.9,東,1.9,東北東,13.1,97.1,0,0,0,13.5
219,2021-03-29T03:38:00,0.9,東,1.9,東北東,13.1,97.2,0,0,0,13.5
220,2021-03-29T03:39:00,0.9,東北東,1.9,東北東,13.1,97.2,0,0,0,13.5
221,2021-03-29T03:40:00,0.9,東北東,1.9,東北東,13.2,97.3,0,0,0,13.5
222,2021-03-29T03:41:00,0.9,東北東,1.9,東北東,13.1,97.2,0,0,0,13.5
223,2021-03-29T03:42:00,0.9,東北東,1.9,東北東,13,97,0,0,0,13.5
224,2021-03-29T03:43:00,0.9,東北東,1.9,東北東,13,97.1,0,0,0,13.5
225,2021-03-29T03:44:00,0.9,東北東,1.9,東北東,13.1,97.2,0,0,0,13.5
226,2021-03-29T03:45:00,0.9,東北東,1.8,東北東,13.1,97.3,0,0,0,13.5
227,2021-03-29T03:46:00,0.8,東北東,1.5,東北東,13.1,97.3,0,0,0,13.5
228,2021-03-29T03:47:00,0.8,東,1.5,東北東,13.1,97.2,0,0,0,13.5
229,2021-03-29T03:48:00,0.8,東,1.4,東北東,13.1,97.2,0,0,0,13.5
230,2021-03-29T03:49:00,0.8,東,1.5,東,13,97.2,0,0,0,13.5
231,2021-03-29T03:50:00,0.8,東,1.5,東,13.1,97.3,0,0,0,13.5
232,2021-03-29T03:51:00,0.8,東北東,1.5,東,13.1,97.3,0,0,0,13.5
233,2021-03-29T03:52:00,0.8,東北東,1.5,東,13,97.2,0,0,0,13.5
234,2021-03-29T03:53:00,0.8,東北東,1.5,東,13,97.1,0,0,0,13.5
235,2021-03-29T03:54:00,0.7,東北東,1.5,東,13,97.2,0,0,0,13.5
236,2021-03-29T03:55:00,0.7,東北東,1.5,東,13,97.2,0,0,0,13.5
237,2021-03-29T03:56:00,0.6,東北東,1.5,東,13,97.2,0,0,0,13.5
238,2021-03-29T03:57:00,0.6,東北東,1.5,東,12.9,97.1,0,0,0,13.5
239,2021-03-29T03:58:00,0.6,東北東,1.5,東,12.9,97.1,0,0,0,13.5
240,2021-03-29T03:59:00,0.5,東北東,1.1,北東,12.9,97.1,0,0,0,13.5
241,2021-03-29T04:00:00,0.5,東北東,1.1,北東,12.9,97.1,0,0,0,13.5
242,2021-03-29T04:01:00,0.6,東北東,1.1,北東,12.9,97.2,0,0,0,13.5
243,2021-03-29T04:02:00,0.6,東北東,1.1,北東,12.8,97.2,0,0,0,13.5
244,2021-03-29T04:03:00,0.6,東北東,1.1,北東,12.8,97.2,0,0,0,13.5
245,2021-03-29T04:04:00,0.6,東,1.1,東南東,12.8,97.1,0,0,0,13.5
246,2021-03-29T04:05:00,0.6,東,1.2,東北東,12.8,97.2,0,0,0,13.5
247,2021-03-29T04:06:00,0.7,東,1.4,東北東,12.8,97.2,0,0,0,13.5
248,2021-03-29T04:07:00,0.8,東,1.5,東北東,12.8,97.2,0,0,0,13.5
249,2021-03-29T04:08:00,0.9,東,1.7,北北東,12.8,97.2,0,0,0,13.5
250,2021-03-29T04:09:00,0.9,東,1.9,北北東,12.8,97.2,0,0,0,13.5
